GW4269 Weather Reports


time (UTC)temp
C
wind
direction
speed
KPH
gust
KPH
rain 1hr
cm
rain 24hr
cm
rain mn
cm
humidity
%
barometer
mb
20260507165955 8 258 14.5 19.3 0.00 0.00 0.00 54 1012.2
20260507165456 9 275 9.7 16.1 0.00 0.00 0.00 56 1012.2
20260507164955 8 323 12.9 16.1 0.00 0.00 0.00 59 1012.5
20260507164456 7 235 14.5 20.9 0.00 0.00 0.00 57 1012.5
20260507163956 6 257 14.5 20.9 0.00 0.00 0.00 60 1012.5
20260507163455 6 252 17.7 22.5 0.00 0.00 0.00 60 1012.5
20260507162958 6 249 14.5 17.7 0.00 0.00 0.00 60 1012.5
20260507162455 6 229 16.1 17.7 0.00 0.00 0.00 59 1012.9
20260507161958 7 255 17.7 22.5 0.00 0.00 0.00 57 1012.9
20260507161457 7 264 19.3 22.5 0.00 0.00 0.00 58 1012.9
20260507160958 7 216 9.7 22.5 0.00 0.00 0.00 57 1012.9
20260507160455 7 260 16.1 20.9 0.00 0.00 0.00 59 1012.9
20260507155955 7 261 14.5 17.7 0.00 0.00 0.00 65 1012.9
20260507155456 6 278 12.9 20.9 0.00 0.00 0.00 65 1012.9
20260507154956 6 303 16.1 22.5 0.00 0.00 0.00 62 1013.2
20260507154455 7 244 16.1 22.5 0.00 0.00 0.00 61 1013.2
20260507153955 8 304 14.5 19.3 0.00 0.00 0.00 60 1013.2
20260507153456 7 239 14.5 24.1 0.00 0.00 0.00 64 1013.2
20260507152956 7 282 12.9 24.1 0.00 0.00 0.00 63 1013.2
20260507152456 7 280 16.1 22.5 0.00 0.00 0.00 69 1013.2
20260507151956 6 273 17.7 20.9 0.00 0.00 0.00 66 1013.2
20260507151456 6 277 14.5 20.9 0.00 0.00 0.00 69 1013.2
20260507150955 6 294 11.3 16.1 0.00 0.00 0.00 69 1013.2
20260507150457 6 295 11.3 16.1 0.00 0.00 0.00 72 1013.2
20260507145956 6 273 11.3 20.9 0.00 0.00 0.00 67 1013.2
20260507145455 6 306 16.1 20.9 0.00 0.00 0.00 70 1013.2
20260507144956 6 286 14.5 17.7 0.00 0.00 0.00 71 1013.2
20260507144456 5 15 12.9 17.7 0.00 0.00 0.00 70 1013.2
20260507143955 5 267 12.9 16.1 0.00 0.00 0.00 69 1013.2
20260507143456 5 285 11.3 16.1 0.00 0.00 0.00 70 1013.2
20260507142956 5 288 14.5 17.7 0.00 0.00 0.00 71 1013.2
20260507142502 5 255 11.3 16.1 0.00 0.00 0.00 73 1013.2
20260507141956 5 270 8.0 14.5 0.00 0.00 0.00 74 1013.2
20260507141456 5 236 11.3 16.1 0.00 0.00 0.00 72 1013.2
20260507140513 4 256 11.3 16.1 0.00 0.00 0.00 74 1013.2
20260507135957 4 239 11.3 12.9 0.00 0.00 0.00 77 1013.2
20260507135455 3 263 11.3 14.5 0.00 0.00 0.00 76 1013.5
20260507134956 3 245 11.3 14.5 0.00 0.00 0.00 76 1013.2
20260507134456 3 224 9.7 14.5 0.00 0.00 0.00 78 1013.2
20260507133956 3 219 9.7 14.5 0.00 0.00 0.00 78 1013.5
20260507133455 3 231 12.9 14.5 0.00 0.00 0.00 79 1013.5
20260507132956 3 220 11.3 14.5 0.00 0.00 0.00 79 1013.5
20260507132456 3 237 11.3 14.5 0.00 0.00 0.00 79 1013.5
20260507131956 2 230 12.9 14.5 0.00 0.00 0.00 79 1013.5
20260507131456 2 249 11.3 16.1 0.00 0.00 0.00 80 1013.5
20260507130956 2 242 11.3 14.5 0.00 0.00 0.00 79 1013.5
20260507130456 2 236 14.5 17.7 0.00 0.00 0.00 79 1013.2
20260507125955 2 218 12.9 16.1 0.00 0.00 0.00 80 1013.2
20260507125455 2 218 12.9 14.5 0.00 0.00 0.00 81 1013.2
20260507124955 2 206 12.9 14.5 0.00 0.00 0.00 81 1013.2
20260507124456 2 222 12.9 14.5 0.00 0.00 0.00 81 1013.2
20260507123956 2 231 11.3 14.5 0.00 0.00 0.00 80 1013.2
20260507123455 2 224 11.3 12.9 0.00 0.00 0.00 82 1013.2
20260507122955 2 223 11.3 12.9 0.00 0.00 0.00 82 1013.2
20260507122455 2 210 11.3 14.5 0.00 0.00 0.00 82 1013.2
20260507121957 2 222 9.7 12.9 0.00 0.00 0.00 83 1013.2
20260507121455 2 208 9.7 12.9 0.00 0.00 0.00 84 1013.2
20260507120955 1 227 9.7 11.3 0.00 0.00 0.00 84 1013.2
20260507120455 1 218 9.7 11.3 0.00 0.00 0.00 84 1013.2
20260507115956 1 221 8.0 11.3 0.00 0.00 0.00 85 1013.2
20260507115456 1 219 8.0 9.7 0.00 0.00 0.00 85 1013.2
20260507114955 1 223 8.0 9.7 0.00 0.00 0.00 84 1013.2
20260507114457 1 238 8.0 9.7 0.00 0.00 0.00 85 1013.2
20260507113955 1 213 8.0 9.7 0.00 0.00 0.00 86 1013.2
20260507113456 1 222 6.4 8.0 0.00 0.00 0.00 85 1013.2
20260507112956 1 216 8.0 9.7 0.00 0.00 0.00 85 1013.2
20260507112456 1 223 8.0 9.7 0.00 0.00 0.00 86 1013.2
20260507111955 1 213 9.7 9.7 0.00 0.00 0.00 86 1013.2
20260507111456 1 208 6.4 9.7 0.00 0.00 0.00 87 1013.2
20260507110956 1 233 6.4 9.7 0.00 0.00 0.00 87 1013.2
20260507110455 1 209 8.0 12.9 0.00 0.00 0.00 85 1013.2
20260507105955 1 204 11.3 12.9 0.00 0.00 0.00 84 1013.2
20260507105455 1 203 8.0 11.3 0.00 0.00 0.00 85 1013.2
20260507104955 1 193 8.0 11.3 0.00 0.00 0.00 84 1013.2
20260507104455 1 202 8.0 12.9 0.00 0.00 0.00 84 1013.2
20260507103956 1 208 8.0 12.9 0.00 0.00 0.00 83 1013.2
20260507103456 1 192 9.7 11.3 0.00 0.00 0.00 84 1013.2
20260507102955 1 208 8.0 11.3 0.00 0.00 0.00 84 1013.2
20260507102455 1 192 8.0 11.3 0.00 0.00 0.00 84 1013.2
20260507101955 1 201 9.7 11.3 0.00 0.00 0.00 83 1013.2
20260507101455 1 205 9.7 11.3 0.00 0.00 0.00 83 1013.2
20260507100955 1 186 8.0 11.3 0.00 0.00 0.00 83 1013.2
20260507100455 1 208 9.7 11.3 0.00 0.00 0.00 83 1013.2
20260507095955 1 202 9.7 11.3 0.00 0.00 0.00 83 1013.2
20260507095455 1 196 8.0 9.7 0.00 0.00 0.00 84 1013.2
20260507094956 1 190 8.0 9.7 0.00 0.00 0.00 84 1013.2
20260507094455 1 204 6.4 9.7 0.00 0.00 0.00 84 1013.2
20260507093956 1 193 8.0 9.7 0.00 0.00 0.00 84 1013.2
20260507093455 1 209 8.0 9.7 0.00 0.00 0.00 84 1013.2
20260507092956 1 195 8.0 9.7 0.00 0.00 0.00 85 1013.2
20260507092455 1 230 8.0 11.3 0.00 0.00 0.00 83 1013.2
20260507091955 1 214 8.0 11.3 0.00 0.00 0.00 82 1013.2
20260507091455 1 192 9.7 11.3 0.00 0.00 0.00 82 1013.2
20260507090955 1 195 8.0 9.7 0.00 0.00 0.00 82 1013.2
20260507090455 1 201 8.0 9.7 0.00 0.00 0.00 82 1013.2
20260507085955 1 207 8.0 9.7 0.00 0.00 0.00 83 1013.2
20260507085455 1 206 8.0 9.7 0.00 0.00 0.00 83 1013.2
20260507084957 1 204 9.7 9.7 0.00 0.00 0.00 83 1013.2
20260507084455 1 210 8.0 9.7 0.00 0.00 0.00 83 1013.2
20260507083955 1 195 6.4 9.7 0.00 0.00 0.00 84 1013.2
20260507083455 1 220 6.4 8.0 0.00 0.00 0.00 86 1013.2
20260507082956 1 201 6.4 6.4 0.00 0.00 0.00 87 1013.2
20260507082457 1 179 4.8 4.8 0.00 0.00 0.00 87 1013.2
20260507081956 1 166 4.8 8.0 0.00 0.00 0.00 85 1013.2
20260507081455 1 213 6.4 8.0 0.00 0.00 0.00 82 1013.2
20260507080955 1 196 6.4 8.0 0.00 0.00 0.00 82 1013.2
20260507080455 1 185 6.4 8.0 0.00 0.00 0.00 82 1013.2
20260507075955 1 192 6.4 8.0 0.00 0.00 0.00 83 1013.2
20260507075455 1 212 6.4 8.0 0.00 0.00 0.00 83 1013.2
20260507074958 1 199 4.8 6.4 0.00 0.00 0.00 84 1013.2
20260507074456 1 198 6.4 6.4 0.00 0.00 0.00 84 1013.2
20260507073955 1 202 4.8 6.4 0.00 0.00 0.00 85 1013.2
20260507073455 0 214 6.4 6.4 0.00 0.00 0.00 86 1013.5
20260507072956 0 211 6.4 8.0 0.00 0.00 0.00 87 1013.5
20260507072455 0 215 6.4 8.0 0.00 0.00 0.00 88 1013.5
20260507071956 0 218 6.4 6.4 0.00 0.00 0.00 88 1013.5
20260507071455 0 223 6.4 6.4 0.00 0.00 0.00 88 1013.5
20260507070955 0 216 4.8 6.4 0.00 0.00 0.00 90 1013.5
20260507070456 0 224 3.2 4.8 0.00 0.00 0.00 89 1013.5
20260507065956 0 238 4.8 4.8 0.00 0.00 0.00 88 1013.5
20260507065455 0 204 4.8 4.8 0.00 0.00 0.00 89 1013.5
20260507064956 0 180 3.2 4.8 0.00 0.00 0.00 90 1013.5
20260507064456 0 162 1.6 4.8 0.00 0.00 0.00 89 1013.9
20260507063955 0 160 1.6 8.0 0.00 0.00 0.00 90 1013.9
20260507063459 0 189 6.4 8.0 0.00 0.00 0.00 90 1013.9
20260507062955 0 175 6.4 8.0 0.00 0.00 0.00 90 1013.9
20260507062455 0 179 3.2 4.8 0.00 0.00 0.00 89 1013.9
20260507061955 -1 162 0.0 4.8 0.00 0.00 0.00 89 1013.9
20260507061455 -1 160 4.8 4.8 0.00 0.00 0.00 89 1013.9
20260507060955 -1 166 4.8 6.4 0.00 0.00 0.00 89 1014.2
20260507060456 -1 171 4.8 6.4 0.00 0.00 0.00 89 1014.2
20260507055955 -1 165 3.2 4.8 0.00 0.00 0.00 87 1014.2
20260507055455 0 167 3.2 4.8 0.00 0.00 0.00 86 1014.2
20260507054955 0 170 3.2 4.8 0.00 0.00 0.00 86 1014.2
20260507054455 0 163 1.6 3.2 0.00 0.00 0.00 86 1014.2
20260507053955 0 180 1.6 3.2 0.00 0.00 0.00 86 1014.2
20260507053455 0 172 0.0 1.6 0.00 0.00 0.00 86 1014.2
20260507052956 0 180 0.0 3.2 0.00 0.00 0.00 85 1014.2
20260507052012 0 210 3.2 4.8 0.00 0.00 0.00 84 1014.6
20260507051455 0 207 4.8 4.8 0.00 0.00 0.00 83 1014.6
20260507050956 0 228 3.2 4.8 0.00 0.00 0.00 82 1014.6
20260507050456 1 226 6.4 6.4 0.00 0.00 0.00 80 1014.6
20260507045955 1 242 4.8 8.0 0.00 0.00 0.00 78 1014.9
20260507045455 1 235 6.4 11.3 0.00 0.00 0.00 75 1014.9
20260507044955 2 233 9.7 11.3 0.00 0.00 0.00 74 1014.9
20260507044455 2 236 9.7 11.3 0.00 0.00 0.00 73 1014.6
20260507043955 2 229 11.3 12.9 0.00 0.00 0.00 72 1014.9
20260507043455 2 234 11.3 14.5 0.00 0.00 0.00 73 1014.9
20260507042955 2 246 11.3 14.5 0.00 0.00 0.00 74 1014.9
20260507042455 2 225 11.3 16.1 0.00 0.00 0.00 74 1014.9
20260507041955 2 242 12.9 16.1 0.00 0.00 0.00 73 1014.9
20260507041455 2 237 12.9 16.1 0.00 0.00 0.00 74 1014.9
20260507040956 2 260 11.3 14.5 0.00 0.00 0.00 74 1014.9
20260507040456 2 237 11.3 12.9 0.00 0.00 0.00 73 1015.2
20260507035955 2 224 11.3 12.9 0.00 0.00 0.00 74 1015.2
20260507035455 2 240 12.9 14.5 0.00 0.00 0.00 74 1015.2
20260507034956 2 244 12.9 16.1 0.00 0.00 0.00 73 1015.2
20260507034458 2 230 11.3 14.5 0.00 0.00 0.00 73 1015.2
20260507033955 2 220 9.7 14.5 0.00 0.00 0.00 75 1015.2
20260507033456 2 232 11.3 14.5 0.00 0.00 0.00 74 1015.2
20260507032956 2 225 11.3 14.5 0.00 0.00 0.00 74 1015.2
20260507032455 2 236 11.3 12.9 0.00 0.00 0.00 74 1015.2
20260507031955 2 217 9.7 12.9 0.00 0.00 0.00 75 1015.2
20260507031457 3 234 11.3 12.9 0.00 0.00 0.00 74 1015.2
20260507030955 3 223 11.3 12.9 0.00 0.00 0.00 74 1015.2
20260507030455 3 238 11.3 14.5 0.00 0.00 0.00 73 1015.2
20260507025956 3 225 11.3 14.5 0.00 0.00 0.00 75 1015.2
20260507025456 2 231 12.9 14.5 0.00 0.00 0.00 75 1015.2
20260507024956 2 235 9.7 12.9 0.00 0.00 0.00 76 1015.2
20260507024456 2 240 11.3 16.1 0.00 0.00 0.00 75 1015.2
20260507023956 2 246 12.9 16.1 0.00 0.00 0.00 75 1015.2
20260507023455 2 242 11.3 14.5 0.00 0.00 0.00 76 1015.2
20260507022955 2 249 11.3 16.1 0.00 0.00 0.00 78 1015.2
20260507022456 2 239 14.5 16.1 0.00 0.00 0.00 78 1015.2
20260507021955 2 237 9.7 12.9 0.00 0.00 0.00 77 1015.2
20260507021456 2 241 9.7 12.9 0.00 0.00 0.00 77 1015.2
20260507020956 2 234 11.3 12.9 0.00 0.00 0.00 77 1015.2
20260507020455 2 239 11.3 14.5 0.00 0.00 0.00 76 1015.2
20260507015956 2 246 11.3 14.5 0.00 0.00 0.00 77 1015.2
20260507015456 2 241 11.3 16.1 0.00 0.00 0.00 77 1015.2
20260507014955 2 232 12.9 17.7 0.00 0.00 0.00 78 1014.9
20260507014455 2 248 16.1 17.7 0.00 0.00 0.00 77 1014.9
20260507013956 2 248 9.7 14.5 0.00 0.00 0.00 76 1014.9
20260507013456 2 259 12.9 16.1 0.00 0.00 0.00 74 1014.9
20260507012957 2 254 11.3 17.7 0.00 0.00 0.00 73 1014.9
20260507012455 2 242 12.9 17.7 0.00 0.00 0.00 72 1014.9
20260507011955 3 265 12.9 17.7 0.00 0.00 0.00 71 1014.9
20260507011455 3 249 14.5 17.7 0.00 0.00 0.00 70 1014.9
20260507010956 3 257 14.5 19.3 0.00 0.00 0.00 71 1014.9
20260507010458 3 254 14.5 17.7 0.00 0.00 0.00 71 1014.9
20260507005955 3 258 16.1 22.5 0.00 0.00 0.00 69 1014.9
20260507005456 3 251 14.5 20.9 0.00 0.00 0.00 69 1014.9
20260507004955 3 285 12.9 22.5 0.00 0.00 0.00 68 1014.9
20260507004455 3 275 17.7 22.5 0.00 0.00 0.00 67 1014.9
20260507003955 3 270 14.5 20.9 0.00 0.00 0.00 68 1014.9
20260507003455 4 246 14.5 20.9 0.00 0.00 0.00 68 1014.9
20260507002955 4 222 16.1 20.9 0.00 0.00 0.00 68 1014.9
20260507002456 4 278 14.5 20.9 0.00 0.00 0.00 68 1014.9
20260507001955 4 281 16.1 22.5 0.00 0.00 0.00 67 1014.9
20260507001455 4 283 19.3 24.1 0.00 0.00 0.00 66 1014.9
20260507000955 4 283 16.1 22.5 0.00 0.00 0.00 66 1014.9
20260507000455 4 268 17.7 24.1 0.00 0.00 0.00 68 1014.6
20260506235955 4 287 16.1 20.9 0.00 0.00 0.00 67 1014.9
20260506235455 4 300 14.5 22.5 0.00 0.00 0.00 66 1014.9
20260506234956 4 285 11.3 24.1 0.00 0.00 0.00 67 1014.9
20260506234455 5 261 19.3 24.1 0.00 0.00 0.00 68 1014.9
20260506233955 5 268 16.1 27.4 0.00 0.00 0.00 65 1014.9
20260506233455 5 175 17.7 22.5 0.00 0.00 0.00 65 1014.9
20260506232955 5 289 12.9 24.1 0.00 0.00 0.00 66 1014.9
20260506232455 5 284 17.7 24.1 0.00 0.00 0.00 64 1014.9
20260506231956 5 268 17.7 29.0 0.00 0.00 0.00 64 1014.9
20260506231455 5 267 17.7 27.4 0.00 0.00 0.00 65 1014.6
20260506230956 5 278 17.7 25.7 0.00 0.00 0.00 65 1014.6
20260506230457 5 275 20.9 27.4 0.00 0.00 0.00 65 1014.6
20260506225955 5 261 19.3 25.7 0.00 0.00 0.00 65 1014.6
20260506225455 5 251 17.7 25.7 0.00 0.00 0.00 64 1014.6
20260506224955 5 303 16.1 24.1 0.00 0.00 0.00 63 1014.6
20260506224455 5 260 14.5 25.7 0.00 0.00 0.00 63 1014.6
20260506223955 5 254 19.3 24.1 0.00 0.00 0.00 61 1014.9
20260506223455 5 278 17.7 24.1 0.00 0.00 0.00 62 1014.6
20260506222956 5 262 19.3 24.1 0.00 0.00 0.00 61 1014.6
20260506222456 5 293 20.9 25.7 0.00 0.00 0.00 61 1014.6
20260506221956 5 319 16.1 22.5 0.00 0.00 0.00 64 1014.6
20260506221455 5 289 16.1 25.7 0.00 0.00 0.00 63 1014.6
20260506220955 5 286 17.7 22.5 0.00 0.00 0.00 63 1014.6
20260506220455 5 277 17.7 24.1 0.00 0.00 0.00 61 1014.6
20260506215955 5 289 19.3 27.4 0.00 0.00 0.00 63 1014.6
20260506215456 5 303 20.9 27.4 0.00 0.00 0.00 61 1014.6
20260506214956 5 287 16.1 25.7 0.00 0.00 0.00 62 1014.6
20260506214455 5 268 16.1 25.7 0.00 0.00 0.00 63 1014.2
20260506213956 5 231 19.3 25.7 0.00 0.00 0.00 62 1014.2
20260506213457 6 285 14.5 27.4 0.00 0.00 0.00 61 1014.2
20260506212955 6 267 19.3 25.7 0.00 0.00 0.00 63 1014.2
20260506212457 6 268 22.5 32.2 0.00 0.00 0.00 61 1014.2
20260506211955 6 267 24.1 32.2 0.00 0.00 0.00 62 1014.6
20260506211455 6 283 17.7 25.7 0.00 0.00 0.00 62 1014.2
20260506210956 6 261 20.9 30.6 0.00 0.00 0.00 62 1014.2
20260506210456 6 267 24.1 30.6 0.00 0.00 0.00 62 1014.2
20260506205956 6 257 25.7 29.0 0.00 0.00 0.00 62 1014.2
20260506205455 6 259 24.1 30.6 0.00 0.00 0.00 61 1014.2
20260506204959 6 285 19.3 29.0 0.00 0.00 0.00 62 1014.2
20260506204456 6 254 16.1 25.7 0.00 0.00 0.00 60 1014.2
20260506203956 6 287 17.7 22.5 0.00 0.00 0.00 60 1014.2
20260506203455 6 264 20.9 27.4 0.00 0.00 0.00 59 1014.2
20260506202955 6 264 17.7 30.6 0.00 0.00 0.00 63 1014.2
20260506202456 6 256 27.4 32.2 0.00 0.00 0.00 60 1014.2
20260506201957 6 311 16.1 24.1 0.00 0.00 0.00 58 1014.6
20260506201455 6 277 20.9 27.4 0.00 0.00 0.00 58 1014.6
20260506200955 6 302 22.5 27.4 0.00 0.00 0.00 58 1014.2
20260506200455 6 288 19.3 25.7 0.00 0.00 0.00 60 1014.2
20260506195956 6 284 17.7 27.4 0.00 0.00 0.00 59 1014.2
20260506195456 7 254 16.1 27.4 0.00 0.00 0.00 60 1014.2
20260506194956 7 246 16.1 25.7 0.00 0.00 0.00 60 1014.2
20260506194455 6 262 17.7 25.7 0.00 0.00 0.00 60 1014.2
20260506193955 6 280 17.7 22.5 0.00 0.00 0.00 60 1014.2
20260506193455 6 247 20.9 32.2 0.00 0.00 0.00 59 1014.2
20260506192956 6 253 22.5 27.4 0.00 0.00 0.00 61 1014.2
20260506192456 6 297 22.5 27.4 0.00 0.00 0.00 58 1014.6
20260506191956 6 283 19.3 29.0 0.00 0.00 0.00 59 1014.6
20260506191455 6 292 22.5 25.7 0.00 0.00 0.00 60 1014.6
20260506190956 6 251 17.7 24.1 0.00 0.00 0.00 58 1014.2
20260506190456 6 258 17.7 25.7 0.00 0.00 0.00 59 1014.6
20260506185955 6 273 22.5 25.7 0.00 0.00 0.00 59 1014.6
20260506185456 6 244 19.3 27.4 0.00 0.00 0.00 62 1014.6
20260506184955 6 245 17.7 24.1 0.00 0.00 0.00 61 1014.6
20260506184455 5 253 16.1 24.1 0.00 0.00 0.00 60 1014.2
20260506183955 6 254 16.1 25.7 0.00 0.00 0.00 60 1014.6
20260506183455 6 262 12.9 20.9 0.00 0.00 0.00 61 1014.6
20260506182955 6 249 17.7 24.1 0.00 0.00 0.00 60 1014.6
20260506182456 7 287 17.7 24.1 0.00 0.00 0.00 60 1014.6
20260506181956 6 296 14.5 25.7 0.00 0.00 0.00 62 1014.6
20260506181455 6 294 17.7 24.1 0.00 0.00 0.00 60 1014.6
20260506180955 6 260 19.3 25.7 0.00 0.00 0.00 62 1014.2
20260506180456 6 303 16.1 27.4 0.00 0.00 0.00 60 1014.6
20260506175955 6 254 19.3 27.4 0.00 0.00 0.00 60 1014.6
20260506175457 6 244 24.1 27.4 0.00 0.00 0.00 60 1014.6
20260506174956 6 263 12.9 29.0 0.00 0.00 0.00 60 1014.6
20260506174456 6 268 19.3 29.0 0.00 0.00 0.00 64 1014.6
20260506173956 6 272 22.5 27.4 0.00 0.00 0.00 61 1014.6
20260506173456 6 254 19.3 25.7 0.00 0.00 0.00 63 1014.6
20260506172956 6 260 11.3 24.1 0.00 0.00 0.00 61 1014.9
20260506172500 6 252 19.3 24.1 0.00 0.00 0.00 61 1014.9
20260506171956 6 296 19.3 25.7 0.00 0.00 0.00 59 1014.9
20260506171456 7 290 20.9 27.4 0.00 0.00 0.00 60 1014.9
20260506170955 6 310 20.9 27.4 0.00 0.00 0.00 63 1014.9
20260506170500 6 280 17.7 24.1 0.00 0.00 0.00 61 1014.9